RH
37 45 90 87 89 91 93 94 94 92 88 88 89 88 87 85 87 88 87 86 85 82 78 77 78 79 74 73 77 80 81 84 84 82 82 79 78 79 79 74 75 42 75
39 45 92 90 89 89 91 94 93 92 91 91 91 90 87 85 85 86 86 84 80 78 77 75 76 75 78 83 86 86 82 82 80 78 76 75 76 78 79 78 81 59 76
42 47 57 92 90 90 91 92 92 91 90 89 89 89 86 85 84 85 86 85 77 76 76 76 75 76 81 87 89 88 88 89 91 86 72 29 32 71 74 78 78 79 77
41 44 50 92 92 92 92 92 91 89 88 89 88 86 86 84 84 84 86 84 78 72 74 75 75 79 84 87 89 86 84 83 84 80 35 29 30 74 71 72 77 79 77
41 41 58 92 93 93 92 93 92 92 92 91 90 85 85 84 83 82 84 82 75 68 71 75 76 81 85 86 85 85 81 77 72 56 29 34 32 63 74 74 71 79 80
41 41 82 94 94 92 93 92 91 91 92 92 91 88 84 83 82 83 84 83 73 68 68 75 79 82 85 85 84 77 72 69 74 27 31 40 36 71 71 73 75 76 82
46 47 59 94 93 92 90 92 92 92 92 91 92 92 88 86 85 85 87 88 82 76 74 75 78 80 83 82 74 68 72 73 38 30 36 41 40 70 73 74 80 81 81
49 49 57 89 93 92 91 91 92 93 93 92 92 92 89 89 89 87 87 89 88 84 80 78 77 75 72 68 68 74 77 78 40 30 34 32 65 68 71 76 84 86 84
55 54 54 56 75 91 91 91 92 92 92 92 92 92 90 90 90 88 87 86 86 85 82 78 75 73 68 66 72 79 84 82 42 28 32 31 73 72 70 70 83 88 88
75 74 66 62 56 58 63 92 91 91 91 92 91 90 90 89 88 89 88 87 84 82 79 78 76 73 73 76 77 80 85 86 34 26 26 31 66 71 74 76 80 84 89
70 70 73 67 67 66 60 69 88 92 90 90 84 93 84 44 47 52 83 88 88 88 85 82 81 81 81 80 79 82 88 25 23 22 22 69 71 72 72 80 86 86 88
71 69 66 71 71 67 48 60 58 55 52 52 51 58 46 55 52 49 66 86 89 91 89 88 88 86 83 29 29 68 32 28 29 24 22 70 73 71 72 80 85 87 89
51 63 66 70 69 65 55 50 44 50 49 53 58 56 54 50 48 39 37 39 44 73 39 51 48 37 36 38 32 34 33 34 25 22 29 68 75 72 69 76 82 85 88
44 50 56 57 72 74 60 56 50 46 48 44 49 58 54 44 48 47 38 40 45 39 48 46 40 49 53 50 50 51 49 45 35 33 38 65 76 75 72 70 77 80 86
49 53 59 59 72 74 62 52 52 57 60 65 55 62 57 55 58 52 50 47 48 46 45 46 44 44 47 48 48 50 50 49 48 41 36 68 78 79 75 73 72 78 80
50 55 59 64 71 62 72 76 70 68 68 59 56 60 62 56 62 52 53 52 50 51 50 50 49 52 49 48 49 50 51 49 46 46 39 38 79 82 84 80 76 76 80
48 61 78 78 76 77 77 70 65 62 59 59 55 64 62 59 63 62 54 54 54 54 59 55 56 52 51 47 49 48 48 46 42 43 41 40 40 77 80 83 84 83 82
48 70 77 74 79 80 76 68 65 60 56 53 56 52 58 62 63 61 55 58 57 54 53 53 54 54 53 56 59 51 46 46 46 46 44 43 40 38 56 82 83 84 85
53 70 75 76 81 81 82 75 64 67 61 60 55 45 52 50 50 49 48 51 50 47 50 48 50 58 61 60 53 45 46 45 45 40 45 46 47 46 42 58 78 82 82
51 62 69 72 76 75 69 74 76 82 80 56 45 50 53 42 46 42 42 49 42 39 40 44 51 48 48 46 37 34 39 37 36 40 44 46 46 57 57 62 60 52 79
52 58 60 65 64 60 52 47 47 45 38 37 40 44 52 46 44 44 37 40 38 42 46 47 42 41 37 43 34 30 29 31 38 51 41 38 46 41 47 42 48 45 41
50 51 52 53 55 51 44 43 40 39 36 35 37 42 41 44 45 41 44 41 44 37 48 48 50 38 33 42 49 36 29 25 36 28 34 33 42 30 29 28 33 32 31
39 44 44 44 42 40 41 38 38 37 32 30 32 34 40 42 43 46 46 47 46 42 42 49 51 52 40 39 51 48 40 35 42 28 32 32 37 36 32 30 31 33 35
34 36 36 38 39 37 34 33 34 28 31 33 35 36 38 44 45 46 50 50 52 46 53 49 48 51 53 48 42 39 51 56 47 50 33 31 36 37 41 35 36 38 36
32 35 37 36 36 39 39 37 32 35 33 33 36 42 46 46 47 46 50 52 53 49 56 59 59 58 48 50 47 47 49 43 42 48 46 42 40 37 35 40 41 37 36
30 36 39 38 36 38 39 41 43 41 36 34 37 36 37 37 40 49 48 53 55 54 57 55 58 60 57 54 50 48 48 49 50 56 62 58 55 46 43 41 41 37 38
Wind_Speed
8 13 8 8 6 7 9 10 13 14 13 13 13 12 12 12 10 10 9 10 11 11 13 14 14 15 14 15 14 14 13 11 11 11 10 11 12 12 10 5 5 12 9
14 13 8 8 8 8 10 11 13 14 14 13 13 12 11 11 11 10 9 9 11 11 12 13 14 15 15 14 12 11 11 9 9 8 9 11 10 9 7 4 12 12 8
13 13 13 9 7 8 10 12 13 14 14 14 13 11 11 11 11 10 9 9 9 10 12 13 14 15 14 13 12 12 12 10 9 4 5 3 11 6 6 5 7 5 7
14 12 12 9 8 7 8 12 13 14 14 13 12 12 10 11 11 9 9 8 8 9 11 13 15 15 13 12 11 10 10 8 5 5 3 5 8 7 5 4 4 3 3
13 12 14 9 8 6 7 10 11 12 12 11 11 12 11 11 10 9 8 9 8 9 10 11 12 13 12 10 10 9 8 5 2 9 6 4 3 10 3 1 6 5 2
12 13 13 9 8 6 6 8 10 10 10 10 10 10 10 10 10 8 8 10 9 9 9 9 10 10 8 8 7 6 5 3 9 4 5 7 2 8 2 3 3 4 2
11 13 14 10 8 7 6 7 9 9 9 9 9 8 9 9 9 8 8 10 8 8 9 9 8 7 6 5 4 4 4 6 10 5 3 1 0 4 4 5 5 6 6
11 11 13 11 8 7 7 7 7 8 8 8 8 8 7 7 7 7 7 8 8 7 7 6 5 5 3 2 1 1 3 7 8 2 3 1 10 5 6 8 8 8 9
8 9 9 10 10 8 7 7 7 8 8 7 7 6 6 6 5 4 4 5 6 6 6 5 3 3 2 1 2 3 4 6 10 4 5 2 7 6 9 10 10 10 11
8 6 6 6 8 9 9 6 7 7 6 6 6 6 4 4 3 4 3 5 2 2 2 2 3 2 3 4 5 5 6 11 12 7 5 3 4 3 8 11 12 12 13
8 8 7 7 6 5 6 8 8 7 6 5 7 5 6 1 1 6 9 3 1 0 2 3 3 4 5 10 9 7 7 7 7 6 6 10 1 6 9 11 12 13 14
9 8 6 7 6 6 5 6 4 5 4 3 3 3 1 3 4 6 0 1 4 4 5 6 6 6 9 8 5 10 7 6 7 8 7 6 3 9 11 11 11 13 15
12 8 8 7 7 6 4 3 3 3 3 4 2 2 1 2 1 1 1 3 1 7 5 7 7 7 4 5 6 5 7 7 6 7 8 4 6 12 14 13 13 13 13
11 10 10 8 7 7 4 4 5 4 3 2 3 3 1 3 1 2 2 2 3 2 3 4 4 4 6 7 7 8 8 8 7 6 8 8 9 12 16 16 14 15 14
8 7 6 7 7 7 7 5 3 3 4 6 3 5 5 5 3 3 2 3 3 3 4 5 5 5 7 8 8 9 10 10 11 8 7 5 10 12 16 18 18 16 16
7 7 7 8 7 4 7 8 5 5 5 5 5 6 6 5 4 4 4 5 5 6 5 6 6 7 7 8 9 10 10 10 11 11 10 10 11 13 15 17 18 19 18
6 8 8 7 10 11 9 7 6 5 5 5 6 9 9 8 6 5 4 4 5 5 7 6 7 7 8 8 10 10 10 13 12 12 11 10 11 13 15 14 15 17 17
7 8 9 8 10 11 10 8 7 6 6 7 6 7 10 8 9 7 6 6 7 6 6 7 6 7 7 7 9 10 10 11 13 13 13 12 11 11 8 14 13 13 14
9 9 9 10 11 11 10 8 10 9 8 6 5 7 9 10 9 6 6 6 6 5 6 7 6 6 7 7 9 10 10 11 12 11 13 13 12 10 9 11 7 10 13
11 10 10 9 10 10 9 8 6 6 5 6 7 8 7 9 10 6 7 8 7 7 7 8 8 7 6 9 11 10 9 10 10 9 9 9 11 14 13 14 14 12 10
10 11 10 10 9 7 6 8 5 7 6 7 8 10 9 10 10 9 7 8 7 8 9 10 8 8 7 10 8 9 9 8 6 9 8 8 9 13 11 12 8 10 11
9 11 11 9 8 7 6 6 5 6 7 7 8 9 10 11 10 9 8 8 9 6 9 10 10 7 6 9 8 8 6 8 5 12 5 8 14 12 14 15 15 16 15
10 9 9 10 9 8 9 8 7 8 6 6 6 7 9 10 10 10 10 8 7 7 7 9 10 10 7 6 9 7 6 5 13 4 9 9 13 12 13 15 15 17 17
10 10 11 10 10 8 6 6 6 6 7 6 6 6 8 9 10 9 9 9 8 7 8 8 8 8 8 7 5 6 4 5 6 9 6 13 13 14 15 10 15 14 16
11 10 10 11 10 9 9 8 7 8 7 6 6 7 8 7 9 9 8 8 7 7 7 9 9 9 6 7 6 6 6 6 5 9 13 12 13 13 11 15 13 14 15
11 11 11 11 11 10 9 10 10 9 8 6 6 5 5 5 6 8 9 8 9 8 9 8 8 10 9 8 7 7 7 8 9 6 11 14 16 12 16 12 14 13 14
Wind_Direction
147 115 123 121 92 93 87 81 79 89 98 102 106 103 99 98 99 94 87 89 90 101 101 100 99 96 97 95 96 96 91 81 81 84 83 88 91 92 94 111 213 108 109
131 131 132 112 113 113 100 88 89 91 97 98 98 100 101 98 93 85 81 84 101 101 105 103 105 106 102 97 90 97 96 95 94 97 115 107 88 88 90 29 18 101 113
134 130 148 121 121 122 115 104 98 97 94 94 94 95 98 100 91 92 79 79 100 110 109 110 104 103 102 98 88 86 86 80 78 92 220 169 103 104 101 78 64 75 124
135 142 133 125 119 121 116 108 102 100 97 96 95 92 86 92 90 90 94 87 93 101 109 112 115 113 113 106 100 94 85 83 98 209 187 74 111 116 115 106 95 87 88
138 138 113 122 120 126 116 105 103 102 99 93 89 95 88 82 84 75 94 86 78 93 105 113 118 123 123 112 107 95 87 84 204 244 85 72 57 114 123 134 180 176 234
136 128 122 123 121 122 115 107 105 105 107 107 103 101 100 99 97 80 77 90 92 92 98 111 116 115 106 102 89 76 64 22 277 73 79 112 320 97 174 205 286 316 276
137 121 135 126 124 122 126 116 110 106 101 98 93 89 93 95 94 90 80 97 102 107 109 109 110 108 115 115 97 60 24 331 313 62 60 39 86 141 221 229 225 239 251
138 138 131 122 115 118 121 121 117 112 104 97 92 87 82 74 82 91 94 105 109 106 108 110 111 122 124 126 98 26 347 321 276 24 332 6 97 185 231 244 228 229 233
135 135 137 142 127 116 121 129 127 122 117 110 101 90 88 95 87 83 98 101 100 121 130 127 140 139 170 254 290 308 315 314 297 319 304 268 117 209 232 241 238 226 231
132 102 129 140 158 153 146 120 122 115 103 92 87 82 90 119 96 112 156 92 64 93 120 183 207 211 246 265 274 281 294 277 259 308 277 56 86 272 256 252 248 241 232
140 144 140 143 141 147 150 125 146 123 112 139 148 97 229 12 115 187 70 68 91 336 309 295 286 290 289 255 245 260 285 277 297 293 294 97 90 281 271 259 252 250 247
148 148 154 139 158 163 167 158 138 126 83 55 55 70 302 18 21 321 334 216 250 242 241 230 240 253 246 262 221 208 245 297 287 284 284 113 243 270 270 265 259 255 250
159 164 170 175 178 177 145 190 160 122 142 130 124 325 73 313 49 244 281 194 222 177 246 207 204 232 311 299 296 300 301 280 272 279 283 177 237 264 269 267 264 264 259
163 170 181 183 186 171 176 187 148 170 158 154 83 360 302 254 187 315 308 315 237 294 317 261 283 303 278 274 274 278 278 281 280 293 288 212 236 258 270 268 264 260 253
152 163 175 164 179 180 192 169 156 101 66 66 51 49 357 341 1 319 356 304 316 315 287 275 274 281 285 271 269 270 273 274 274 274 281 214 219 237 254 265 265 259 255
140 141 156 174 174 126 60 67 90 87 96 71 59 41 27 3 352 325 4 0 351 330 333 310 312 303 291 295 279 272 274 277 276 280 277 278 207 227 238 250 261 266 261
127 109 79 80 87 87 86 84 79 71 78 71 59 43 28 20 15 350 22 4 359 344 316 318 311 296 284 275 277 276 279 268 267 269 274 280 286 224 228 237 246 253 259
125 99 93 92 92 91 90 90 82 69 76 62 41 53 46 48 35 29 28 11 359 354 355 341 339 323 305 311 309 300 295 283 275 276 273 275 277 289 254 223 240 250 258
110 102 93 96 93 92 87 90 87 81 75 63 44 53 38 40 43 31 31 28 7 17 10 1 345 348 348 318 309 299 290 285 287 290 285 289 290 286 302 306 261 253 257
112 104 98 95 93 95 98 101 98 90 85 66 67 56 44 50 41 37 50 29 19 22 21 3 354 352 345 343 315 300 305 302 294 291 329 342 325 359 351 355 345 332 336
124 118 111 110 127 129 134 118 109 100 101 90 81 63 51 46 45 34 43 33 23 32 21 11 357 357 358 359 319 331 296 271 337 3 338 315 9 341 338 338 320 323 323
122 125 127 120 125 116 105 100 99 99 86 84 78 66 55 53 44 49 37 40 26 31 29 22 14 355 8 24 352 298 333 307 83 329 324 329 10 329 344 330 334 327 319
118 124 125 127 125 112 118 123 116 114 116 102 86 71 56 55 51 45 43 39 35 30 31 23 15 19 356 21 40 3 336 347 334 45 328 14 329 348 331 331 326 330 321
120 116 118 118 118 118 129 126 124 109 106 89 88 81 74 54 51 46 42 37 35 35 29 26 26 14 6 17 3 17 27 325 332 321 336 322 356 331 333 333 325 316 322
131 120 115 113 110 109 108 113 114 110 113 107 101 95 82 72 53 52 44 43 40 39 38 31 29 23 26 11 3 359 350 319 327 314 304 333 324 330 330 324 309 318 330
135 130 126 122 115 109 106 105 104 111 107 107 98 94 79 68 61 46 50 48 42 38 33 33 28 29 22 18 359 354 353 348 337 328 308 315 315 323 321 302 328 327 321